Retour au catalogue

SATMAR

ActifCommunicationsSSO
NORAD 64551·PAYLOAD·🇪🇸 Spain

Lancé Jun 23, 2025 depuis Vandenberg Space Force Base

Loading…

Prochains Passages (prochaines 24 heures)

TLE

FraisSource: Space-Track

Époque: Sep 13, 2026, 19:10 UTC

1 64551U 25135Z   26256.79910371  .00005841  00000-0  22945-3 0  9998
2 64551  97.4698  12.3578 0000793  46.8594 313.2710 15.26086203 68438

Suivez SATMAR en temps réel avec AllMySat

Download on the App Store